Regional Weather Roundup
Issued by NWS

Home | Current Version | Previous Version | Text Only | Print | Product List | Glossary Off
Versions: 1 2 3 4 5 6 7 8 9 10 11 12 13 14 15 16 17 18 19 20 21 22 23 24 25 26 27 28 29 30 31 32 33 34 35 36 37 38 39 40 41 42 43 44 45 46 47 48 49 50

000
ASUS43 KBIS 021602
RWRND

NORTH DAKOTA REGIONAL WEATHER ROUNDUP
NATIONAL WEATHER SERVICE BISMARCK ND
1100 AM CDT THU JUL 02 2015

NOTE: "FAIR" INDICATES FEW OR NO CLOUDS BELOW 12,000 FEET WITH NO
SIGNIFICANT WEATHER AND/OR OBSTRUCTIONS TO VISIBILITY.


NDZ001>003-009>011-017-021700-
NORTHWEST NORTH DAKOTA

CITY           SKY/WX    TMP DP  RH WIND       PRES   REMARKS
WILLISTON      SUNNY     73  60  63 N3        30.05S HAZE
MINOT          CLOUDY    70  61  73 NW7       29.98S HAZE
MINOT AFB      SUNNY     72  68  88 NW9       29.98R FOG
$$

NDZ018>021-031>035-040>046-021700-
SOUTHWEST NORTH DAKOTA

CITY           SKY/WX    TMP DP  RH WIND       PRES   REMARKS
BISMARCK       PTSUNNY   72  64  76 N5        30.00S HAZE
DICKINSON      SUNNY     69  59  70 NW10      30.04S
GARRISON         N/A     71  65  81 N7        30.00R
HETTINGER ARPT SUNNY     71  58  63 NW12      30.07S
$$

NDZ004>008-012>016-024-026-027-054-021700-
NORTHEAST NORTH DAKOTA

CITY           SKY/WX    TMP DP  RH WIND       PRES   REMARKS
GRAND FORKS    SUNNY     70  59  68 SW8       29.95F
GRND FRKS AFB  SUNNY     71  61  70 SW7       29.96S
DEVILS LAKE    CLOUDY    70  63  78 S6        29.95F
$$

NDZ022-023-025-028>030-036>039-047>053-021700-
SOUTHEAST NORTH DAKOTA

CITY           SKY/WX    TMP DP  RH WIND       PRES   REMARKS
FARGO          SUNNY     71  53  52 S10       29.99S
JAMESTOWN      CLOUDY    70  63  78 S8        29.97S
$$



USA.gov is the U.S. government's official web portal to all federal, state and local government web resources and services.